Flag for U.S.A. Weather past 2 weeks in Topeka, Kansas, U.S.A.

Now
34 °F

Low clouds.


Feels Like: 34 °F
Forecast: 29 / 34 °F
Wind: No wind

Location: Philip Billard Municipal Airport

Current Time: Dec 18, 2014 at 3:20:07 PM

Latest Report: Dec 18, 2014 at 2:53 PM


Visibility: 7 mi

Pressure: 30.22 "Hg

Humidity: 85%

Dew point: 30 °F

Location of TopekaLocation

Historic Weather in Topeka — Graph

°F

Topeka temperature yesterday

Maximum temperature yesterday: 31 °F (at 5:53 PM)
Minimum temperature yesterday: 24 °F (at 5:53 AM)
Average temperature yesterday: 28 °F

Past Weeks' High & Low Weather Summary

 TemperatureHumidityPressure
High61 °F (Dec 14, 1:53 PM)100% (Dec 5, 7:53 AM)30.58 "Hg (Dec 5, 7:53 AM)
Low24 °F (Dec 17, 5:53 AM)28% (Dec 3, 2:53 PM)29.53 "Hg (Dec 15, 5:53 AM)
Average40 °F83%30.21 "Hg
* Reported Dec 3 1:53 PM — Dec 18 1:53 PM, Topeka, Weather by CustomWeather, © 2014

Note: Actual official high and low records may vary slightly from our data, if they occured in-between our weather recording intervals... More about our weather records

Advertising

Topeka weather history for previous 24 hours

 ConditionsComfort  
Time TempWeatherWind HumidityBarometerVisibility
1:53 PM
Dec 18
34 °FFog.No wind85%30.22 "Hg5 mi
12:53 PM33 °FFog.No wind88%30.24 "Hg6 mi
11:53 AM32 °FIce fog.No wind92%30.25 "Hg2 mi
10:53 AM32 °FIce fog.No wind85%30.28 "Hg4 mi
9:53 AM32 °FIce fog.5 mph85%30.27 "Hg6 mi
8:53 AM30 °FIce fog.5 mph92%30.26 "Hg2 mi
7:53 AM30 °FLight snow. Ice fog.3 mph92%30.24 "Hg1 mi
7:02 AM30 °FLight snow. Ice fog.5 mph89%30.22 "Hg2 mi
6:53 AM30 °FLight snow. Ice fog.5 mph89%30.24 "Hg2 mi
5:53 AM29 °FLight snow. Ice fog.6 mph93%30.23 "Hg2 mi
4:53 AM29 °FLight snow. Ice fog.7 mph93%30.22 "Hg2 mi
4:03 AM29 °FLight snow. Ice fog.7 mph93%30.21 "Hg1 mi
3:57 AM29 °FLight snow. Ice fog.8 mph93%30.21 "Hg2 mi
2:53 AM30 °FLight snow. Ice fog.6 mph89%30.25 "Hg1 mi
1:53 AM29 °FLight snow. Ice fog.5 mph93%30.25 "Hg1 mi
12:53 AM29 °FLight snow. Ice fog.6 mph93%30.27 "Hg2 mi
11:53 PM
Dec 17
29 °FLight snow. Ice fog.5 mph93%30.28 "Hg1 mi
10:53 PM30 °FLight snow. Overcast.5 mph79%30.29 "Hg1 mi
9:53 PM31 °FOvercast.3 mph69%30.28 "Hg10 mi
8:53 PM31 °FOvercast.5 mph69%30.29 "Hg10 mi
7:53 PM31 °FMostly cloudy.7 mph67%30.28 "Hg10 mi
6:53 PM31 °FMostly cloudy.6 mph67%30.29 "Hg10 mi
5:53 PM31 °FOvercast.8 mph69%30.26 "Hg10 mi
4:53 PM30 °FOvercast.6 mph69%30.28 "Hg10 mi
3:53 PM30 °FOvercast.5 mph69%30.28 "Hg10 mi
Weather by CustomWeather, © 2014

See weather overviewHow to use our weather pages